SEJ902 VOGO-VAPO

Flight info

Callsign SEJ902
Flight time 0h 44m
Altitude 26000
Route EPKOS2B EPKOS W128 AVKOR DCT 183223N0735822E 183206N0740756E DCT 183444N0740802E
Aircraft B38M/M-SDE1FGHILORVWXY/HB1

Departure

Time 2026-04-18 08:22
Airport Goa Dabolim International Airport (VOGO)

Arrival

Time 2026-04-18 09:07
Airport Pune International Airport (VAPO)
Time Latitude Longitude Altitude Speed Heading
2026-04-18 07:59 15.38426 73.83799 181 ft 0 kts 348°
2026-04-18 08:08 15.38415 73.83802 181 ft 2 kts 352°
2026-04-18 08:08 15.38399 73.83803 181 ft 2 kts 357°
2026-04-18 08:08 15.38382 73.83803 180 ft 2 kts
2026-04-18 08:08 15.38366 73.83799 180 ft 2 kts 25°
2026-04-18 08:09 15.38353 73.83789 180 ft 2 kts 50°
2026-04-18 08:09 15.38345 73.83774 179 ft 2 kts 74°
2026-04-18 08:09 15.38343 73.83766 179 ft 0 kts 80°
2026-04-18 08:18 15.38345 73.83775 179 ft 6 kts 80°
2026-04-18 08:18 15.38362 73.83860 182 ft 16 kts 78°
2026-04-18 08:18 15.38384 73.83973 190 ft 15 kts 79°
2026-04-18 08:18 15.38399 73.84076 190 ft 14 kts 80°
2026-04-18 08:19 15.38416 73.84168 194 ft 12 kts 79°
2026-04-18 08:19 15.38432 73.84250 197 ft 11 kts 78°
2026-04-18 08:19 15.38447 73.84323 200 ft 11 kts 78°
2026-04-18 08:19 15.38467 73.84426 215 ft 19 kts 78°
2026-04-18 08:20 15.38497 73.84590 213 ft 27 kts 80°
2026-04-18 08:20 15.38530 73.84762 219 ft 8 kts 82°
2026-04-18 08:20 15.38512 73.84804 220 ft 7 kts 163°
2026-04-18 08:20 15.38501 73.84806 221 ft 0 kts 170°
2026-04-18 08:21 15.38482 73.84810 217 ft 8 kts 169°
2026-04-18 08:21 15.38403 73.84816 216 ft 14 kts 192°
2026-04-18 08:21 15.38362 73.84722 216 ft 18 kts 259°
2026-04-18 08:22 15.38313 73.84466 205 ft 73 kts 259°
2026-04-18 08:22 15.38155 73.83663 171 ft 150 kts 258°
2026-04-18 08:22 15.37924 73.82464 579 ft 182 kts 259°
2026-04-18 08:22 15.37662 73.81066 1212 ft 211 kts 260°
2026-04-18 08:23 15.37378 73.79447 1553 ft 240 kts 260°
2026-04-18 08:23 15.37067 73.77692 1844 ft 259 kts 259°
2026-04-18 08:23 15.36728 73.75811 2208 ft 256 kts 259°
2026-04-18 08:23 15.36409 73.74061 2742 ft 252 kts 259°
2026-04-18 08:24 15.36100 73.72234 3272 ft 262 kts 265°
2026-04-18 08:24 15.36416 73.70381 3769 ft 267 kts 300°
2026-04-18 08:24 15.37716 73.69012 4319 ft 269 kts 335°
2026-04-18 08:24 15.39524 73.68626 4851 ft 267 kts
2026-04-18 08:25 15.41295 73.69192 5405 ft 268 kts 27°
2026-04-18 08:25 15.43027 73.69924 5951 ft 275 kts 20°
2026-04-18 08:25 15.44874 73.70550 6480 ft 279 kts 19°
2026-04-18 08:25 15.46762 73.70970 7004 ft 282 kts
2026-04-18 08:26 15.48725 73.71137 7544 ft 284 kts
2026-04-18 08:26 15.50720 73.71199 8093 ft 287 kts
2026-04-18 08:26 15.52732 73.71172 8645 ft 289 kts
2026-04-18 08:26 15.54764 73.71081 9142 ft 293 kts 359°
2026-04-18 08:27 15.56802 73.70949 9644 ft 301 kts 358°
2026-04-18 08:27 15.58940 73.70786 10100 ft 312 kts 358°
2026-04-18 08:27 15.61132 73.70912 10539 ft 318 kts 14°
2026-04-18 08:27 15.63300 73.71429 10998 ft 327 kts 13°
2026-04-18 08:28 15.65564 73.71880 11469 ft 334 kts 13°
2026-04-18 08:28 15.67878 73.72327 11952 ft 340 kts 12°
2026-04-18 08:28 15.70202 73.72771 12440 ft 346 kts 12°
2026-04-18 08:28 15.72600 73.73226 12933 ft 351 kts 12°
2026-04-18 08:29 15.75030 73.73687 13444 ft 356 kts 13°
2026-04-18 08:29 15.77471 73.74151 13907 ft 363 kts 13°
2026-04-18 08:29 15.79989 73.74629 14377 ft 368 kts 12°
2026-04-18 08:29 15.82528 73.75112 14815 ft 372 kts 12°
2026-04-18 08:30 15.85051 73.75591 15313 ft 374 kts 12°
2026-04-18 08:30 15.87642 73.76084 15755 ft 379 kts 12°
2026-04-18 08:30 15.90277 73.76586 16070 ft 386 kts 12°
2026-04-18 08:30 15.92938 73.77092 16431 ft 391 kts 12°
2026-04-18 08:31 15.95580 73.77628 16826 ft 392 kts 16°
2026-04-18 08:31 15.98168 73.78588 17165 ft 395 kts 22°
2026-04-18 08:31 16.00767 73.79575 17552 ft 400 kts 20°
2026-04-18 08:31 16.03416 73.80547 17969 ft 402 kts 20°
2026-04-18 08:32 16.06037 73.81509 18326 ft 404 kts 20°
2026-04-18 08:32 16.08711 73.82494 18643 ft 408 kts 20°
2026-04-18 08:32 16.11397 73.83483 19001 ft 410 kts 20°
2026-04-18 08:32 16.14091 73.84476 19392 ft 410 kts 20°
2026-04-18 08:33 16.16791 73.85472 19739 ft 411 kts 20°
2026-04-18 08:33 16.19457 73.86455 20094 ft 412 kts 20°
2026-04-18 08:33 16.22164 73.87453 20461 ft 415 kts 20°
2026-04-18 08:33 16.24906 73.88465 20832 ft 418 kts 20°
2026-04-18 08:34 16.27667 73.89484 21202 ft 422 kts 19°
2026-04-18 08:34 16.30451 73.90512 21583 ft 425 kts 19°
2026-04-18 08:34 16.33225 73.91536 21964 ft 427 kts 19°
2026-04-18 08:34 16.36050 73.92580 22302 ft 432 kts 19°
2026-04-18 08:35 16.38901 73.93633 22551 ft 437 kts 19°
2026-04-18 08:35 16.41757 73.94689 22795 ft 443 kts 19°
2026-04-18 08:35 16.44703 73.95778 23058 ft 447 kts 19°
2026-04-18 08:35 16.47616 73.96856 23320 ft 451 kts 19°
2026-04-18 08:36 16.50595 73.97958 23583 ft 456 kts 19°
2026-04-18 08:36 16.53597 73.99069 23813 ft 459 kts 19°
2026-04-18 08:36 16.56636 74.00194 24034 ft 462 kts 19°
2026-04-18 08:36 16.59681 74.01322 24257 ft 466 kts 19°
2026-04-18 08:37 16.62719 74.02447 24486 ft 469 kts 19°
2026-04-18 08:37 16.65813 74.03594 24726 ft 472 kts 19°
2026-04-18 08:37 16.68918 74.04745 24963 ft 474 kts 19°
2026-04-18 08:37 16.72036 74.05902 25200 ft 477 kts 19°
2026-04-18 08:38 16.75183 74.07069 25445 ft 479 kts 18°
2026-04-18 08:38 16.78305 74.08228 25572 ft 485 kts 18°
2026-04-18 08:38 16.81516 74.09419 25530 ft 491 kts 18°
2026-04-18 08:38 16.84749 74.10620 25540 ft 493 kts 18°
2026-04-18 08:39 16.88014 74.11753 25540 ft 493 kts 14°
2026-04-18 08:39 16.91361 74.12304 25466 ft 488 kts 358°
2026-04-18 08:39 16.94722 74.11896 25585 ft 484 kts 343°
2026-04-18 08:39 16.97945 74.10973 25538 ft 485 kts 343°
2026-04-18 08:40 17.01281 74.10315 25545 ft 487 kts 351°
2026-04-18 08:40 17.04660 74.09909 25309 ft 487 kts 351°
2026-04-18 08:40 17.08006 74.09445 24826 ft 482 kts 351°
2026-04-18 08:40 17.11299 74.08994 24436 ft 479 kts 351°
2026-04-18 08:41 17.14608 74.08548 24032 ft 480 kts 351°
2026-04-18 08:41 17.17951 74.08099 23618 ft 486 kts 351°
2026-04-18 08:41 17.21305 74.07650 23166 ft 491 kts 351°
2026-04-18 08:41 17.24726 74.07191 22687 ft 493 kts 352°
2026-04-18 08:42 17.28048 74.06746 22371 ft 466 kts 352°
2026-04-18 08:42 17.31188 74.06326 22046 ft 454 kts 352°
2026-04-18 08:42 17.34309 74.05906 21607 ft 447 kts 352°
2026-04-18 08:42 17.37380 74.05493 21190 ft 442 kts 352°
2026-04-18 08:43 17.40411 74.05086 20777 ft 436 kts 352°
2026-04-18 08:43 17.43413 74.04682 20366 ft 431 kts 352°
2026-04-18 08:43 17.46378 74.04283 19950 ft 427 kts 352°
2026-04-18 08:43 17.49280 74.03894 19550 ft 423 kts 352°
2026-04-18 08:44 17.52183 74.03503 19160 ft 419 kts 352°
2026-04-18 08:44 17.55063 74.03115 18773 ft 415 kts 352°
2026-04-18 08:44 17.57922 74.02730 18364 ft 412 kts 352°
2026-04-18 08:44 17.60767 74.02347 17960 ft 408 kts 353°
2026-04-18 08:45 17.63584 74.01968 17530 ft 404 kts 353°
2026-04-18 08:45 17.66325 74.01598 17082 ft 400 kts 353°
2026-04-18 08:45 17.69044 74.01231 16697 ft 385 kts 353°
2026-04-18 08:45 17.71651 74.00880 16318 ft 377 kts 353°
2026-04-18 08:46 17.74254 74.00529 15914 ft 373 kts 353°
2026-04-18 08:46 17.76835 74.00181 15471 ft 371 kts 353°
2026-04-18 08:46 17.79366 73.99840 15082 ft 367 kts 353°
2026-04-18 08:46 17.81865 73.99503 14988 ft 356 kts 353°
2026-04-18 08:47 17.84311 73.99172 14799 ft 349 kts 353°
2026-04-18 08:47 17.86709 73.98848 14597 ft 344 kts 353°
2026-04-18 08:47 17.89046 73.98533 14401 ft 339 kts 353°
2026-04-18 08:47 17.91374 73.98218 14219 ft 333 kts 353°
2026-04-18 08:48 17.93658 73.97910 14034 ft 329 kts 353°
2026-04-18 08:48 17.95930 73.97602 13771 ft 327 kts 353°
2026-04-18 08:48 17.98150 73.97302 13491 ft 323 kts 353°
2026-04-18 08:48 18.00384 73.97000 13217 ft 320 kts 354°
2026-04-18 08:49 18.02576 73.96703 12939 ft 318 kts 354°
2026-04-18 08:49 18.04773 73.96555 12656 ft 315 kts
2026-04-18 08:49 18.06939 73.96623 12394 ft 313 kts
2026-04-18 08:49 18.09112 73.96671 12081 ft 312 kts
2026-04-18 08:50 18.11309 73.96710 11702 ft 314 kts
2026-04-18 08:50 18.13499 73.96745 11340 ft 315 kts
2026-04-18 08:50 18.15676 73.96775 10981 ft 315 kts
2026-04-18 08:50 18.17887 73.96804 10638 ft 316 kts
2026-04-18 08:51 18.20086 73.96833 10275 ft 317 kts
2026-04-18 08:51 18.22295 73.96863 9928 ft 317 kts
2026-04-18 08:51 18.24485 73.96893 9567 ft 315 kts
2026-04-18 08:51 18.26640 73.96920 9190 ft 306 kts
2026-04-18 08:52 18.28052 73.96939 8963 ft 305 kts
2026-04-18 08:52 18.30171 73.96968 8599 ft 304 kts
2026-04-18 08:52 18.32970 73.97004 8119 ft 302 kts
2026-04-18 08:52 18.35081 73.97034 7822 ft 300 kts
2026-04-18 08:53 18.36457 73.97055 7665 ft 297 kts
2026-04-18 08:53 18.38517 73.97084 7422 ft 292 kts
2026-04-18 08:53 18.41177 73.97119 7126 ft 285 kts
2026-04-18 08:53 18.42494 73.97137 6981 ft 283 kts
2026-04-18 08:54 18.44454 73.97166 6741 ft 280 kts
2026-04-18 08:54 18.46406 73.97196 6510 ft 278 kts
2026-04-18 08:54 18.48324 73.97221 6289 ft 276 kts
2026-04-18 08:54 18.50245 73.97245 6025 ft 274 kts
2026-04-18 08:55 18.52121 73.97444 5783 ft 270 kts 19°
2026-04-18 08:55 18.53723 73.98442 5540 ft 266 kts 47°
2026-04-18 08:55 18.54665 74.00092 5308 ft 264 kts 75°
2026-04-18 08:55 18.54753 74.01995 5067 ft 260 kts 102°
2026-04-18 08:56 18.54340 74.03809 4877 ft 255 kts 101°
2026-04-18 08:56 18.54060 74.05661 4697 ft 255 kts 97°
2026-04-18 08:56 18.53865 74.07498 4482 ft 248 kts 95°
2026-04-18 08:56 18.53724 74.09285 4279 ft 240 kts 94°
2026-04-18 08:57 18.54547 74.12470 3770 ft 232 kts 45°
2026-04-18 08:57 18.55942 74.13257 3660 ft 226 kts 12°
2026-04-18 08:57 18.57453 74.13104 3695 ft 216 kts 337°
2026-04-18 08:58 18.58519 74.11969 3713 ft 243 kts 293°
2026-04-18 08:58 18.58739 74.10133 3712 ft 254 kts 261°
2026-04-18 08:58 18.58299 74.08377 3705 ft 249 kts 256°
2026-04-18 08:58 18.58010 74.06651 3708 ft 233 kts 263°
2026-04-18 08:59 18.57859 74.05000 3718 ft 220 kts 265°
2026-04-18 08:59 18.57755 74.03427 3713 ft 214 kts 263°
2026-04-18 08:59 18.57611 74.01831 3666 ft 222 kts 268°
2026-04-18 08:59 18.57673 74.00182 3662 ft 224 kts 275°
2026-04-18 09:00 18.57831 73.98543 3346 ft 238 kts 275°
2026-04-18 09:00 18.57934 73.96652 2661 ft 264 kts 272°
2026-04-18 09:00 18.57949 73.94746 2399 ft 257 kts 269°
2026-04-18 09:00 18.57631 73.92963 2577 ft 248 kts 239°
2026-04-18 09:01 18.56391 73.91703 3484 ft 258 kts 205°
2026-04-18 09:01 18.54546 73.91228 3687 ft 296 kts 178°
2026-04-18 09:01 18.52711 73.91940 3546 ft 280 kts 134°
2026-04-18 09:01 18.51723 73.93656 3340 ft 271 kts 106°
2026-04-18 09:02 18.51344 73.95563 3492 ft 264 kts 99°
2026-04-18 09:02 18.51091 73.97460 3619 ft 265 kts 97°
2026-04-18 09:02 18.50875 73.99401 3637 ft 267 kts 96°
2026-04-18 09:02 18.50657 74.01339 3688 ft 262 kts 97°
2026-04-18 09:03 18.50441 74.03242 3690 ft 259 kts 96°
2026-04-18 09:03 18.50341 74.05075 3711 ft 250 kts 84°
2026-04-18 09:03 18.50955 74.06741 3725 ft 243 kts 53°
2026-04-18 09:03 18.52281 74.07843 3674 ft 245 kts 24°
2026-04-18 09:04 18.53935 74.08112 3733 ft 244 kts
2026-04-18 09:04 18.55575 74.07735 3672 ft 236 kts 332°
2026-04-18 09:04 18.56687 74.06610 3687 ft 212 kts 298°
2026-04-18 09:04 18.57232 74.05221 3785 ft 211 kts 286°
2026-04-18 09:05 18.57538 74.03672 3693 ft 219 kts 278°
2026-04-18 09:05 18.57654 74.02010 3404 ft 237 kts 271°
2026-04-18 09:05 18.57696 74.00293 3206 ft 230 kts 272°
2026-04-18 09:05 18.57803 73.98641 2945 ft 227 kts 275°
2026-04-18 09:06 18.57915 73.96972 2665 ft 226 kts 274°
2026-04-18 09:06 18.58015 73.95342 2383 ft 220 kts 274°
2026-04-18 09:06 18.58117 73.93751 2046 ft 218 kts 274°
2026-04-18 09:06 18.58228 73.92251 1928 ft 187 kts 274°
2026-04-18 09:07 18.58273 73.91197 1928 ft 78 kts 272°
2026-04-18 09:07 18.58257 73.90957 1928 ft 16 kts 213°
2026-04-18 09:07 18.58156 73.90935 1928 ft 15 kts 189°
2026-04-18 09:07 18.58138 73.90931 1927 ft 1 kts 191°
2026-04-18 09:08 18.58114 73.90926 1928 ft 8 kts 191°
2026-04-18 09:08 18.58058 73.90942 1927 ft 9 kts 116°
2026-04-18 09:08 18.58019 73.90967 1928 ft 3 kts 182°
2026-04-18 09:08 18.58003 73.90965 1928 ft 0 kts 185°
2026-04-18 09:09 18.57999 73.90965 1928 ft 0 kts 185°